Location: Allos
(44.2333°N, 6.6333°E)
Time: 06:12:00
(UTC+00:00)

Cosmos 1782 - Pass Details

Date: 01 December 2020
Orbit: 537 x 551 km, 82.5° (Epoch: 27 January)

Event Time Altitude Azimuth Distance (km) Brightness Sun altitude
Rises 16:18:41 0° 150° (SSE) 2,683 6.3 -4.4°
Reaches altitude 10° 16:21:19 10° 131° (SE) 1,800 5.2 -4.9°
Maximum altitude 16:24:04 18° 87° (E) 1,352 4.3 -5.3°
Drops below altitude 10° 16:26:51 10° 43° (NE) 1,817 4.9 -5.7°
Enters shadow 16:29:08 - 26° (NNE) 2,579 5.8 -6.1°
